Location: Mount Tamalpais State Park
(37.9108°N, 122.6128°W)
Time: 22:33:58
(UTC-08:00)

Daily predictions for brighter satellites

Satellite Brightness Start Highest point End
(mag) Time Altitude Azimuth Time Altitude Azimuth Time Altitude Azimuth
IRAS Rocket 4.2 17:13:13 10° SSE 17:18:46 79° ENE 17:24:18 10° NNW
Cosmos 2208 Rocket 4.1 17:16:21 10° NNW 17:21:35 90° ENE 17:26:52 10° SSE
BREEZE-M R/B 4.0 17:19:48 10° NNW 17:21:41 17° NNE 17:24:06 10° ENE
AQUARIUS 4.4 17:18:04 10° SSE 17:22:22 48° ENE 17:26:42 10° N
USA 161 3.7 17:22:13 10° NNW 17:23:31 16° WNW 17:24:52 10° WSW
Cosmos 1782 4.5 17:22:46 10° ESE 17:25:06 15° E 17:27:27 10° NE
Cosmos 2242 Rocket 3.6 17:23:00 10° S 17:27:34 84° E 17:32:08 10° N
Cosmos 1733 Rocket 3.1 17:26:39 10° N 17:31:04 65° E 17:35:29 10° SSE
USA 234 3.7 17:25:17 10° NE 17:31:34 48° SE 17:37:50 10° SSW
Cosmos 972 Rocket 3.9 17:26:46 10° N 17:31:38 61° ENE 17:36:30 10° SSE
Cosmos 2233 Rocket 4.1 17:26:12 10° SSE 17:32:17 56° E 17:38:20 10° NNE
Lacrosse 5 4.1 17:33:41 10° WNW 17:36:50 16° NNW 17:39:58 10° NNE
Cosmos 1862 Rocket 3.5 17:34:31 10° S 17:38:55 84° E 17:43:24 10° N
Cosmos 2082 Rocket 3.4 17:39:24 10° N 17:43:30 20° NE 17:47:33 10° E
Cosmos 1340 3.8 17:40:26 10° SSW 17:44:03 45° WNW 17:47:41 10° N
CZ-4C R/B 4.3 17:40:10 10° N 17:44:12 16° NNE 17:47:31 12° ENE
GENESIS II 4.4 17:40:42 10° NNW 17:44:30 47° NE 17:48:15 10° SE
CSL-04 Rocket 3.9 17:40:15 10° S 17:45:30 74° WSW 17:50:51 10° NNW
Cosmos 1437 3.2 17:45:42 10° SSW 17:48:51 61° W 17:51:59 10° N
CZ-3A R/B 4.2 17:40:15 10° NW 17:57:16 57° NNE 18:03:12 10° ESE
ERBS 2.4 17:54:05 10° NNW 17:57:25 51° NE 18:00:20 13° ESE
ERS-2 2.3 17:54:51 10° SSE 17:58:24 49° ENE 18:01:58 10° N
METEOR-M 4.2 17:54:38 10° SSE 17:59:50 56° ENE 18:05:04 10° N
Okean 1-7 3.6 17:57:47 10° SSE 18:01:44 35° E 18:05:45 10° NNE
Cosmos 304 Rocket 3.7 17:58:19 10° NNW 18:03:08 70° ENE 18:07:53 10° SSE
BREEZE M DEB (TANK) 4.3 18:05:15 10° W 18:07:13 17° SW 18:08:50 10° S
CZ-4 R/B 4.3 18:03:47 10° SSE 18:07:55 77° ENE 18:12:05 10° N
CZ-2C R/B 4.1 18:04:19 10° N 18:08:45 64° WNW 18:13:14 10° SSW
Cosmos 1782 Rocket 3.8 18:07:59 10° N 18:12:07 42° E 18:16:14 10° SSE
CENTAUR R/B 3.9 18:08:30 10° WSW 18:13:59 33° NW 18:20:09 10° NNE
Meteor 1-14 Rocket 4.2 18:08:30 10° N 18:14:12 85° W 18:19:45 10° S
BREEZE-M DEB (TANK) 3.2 18:07:14 10° WNW 18:15:08 65° SW 18:17:59 13° SE
YAOGAN 1 2.7 18:11:38 10° S 18:15:57 79° WSW 18:20:17 10° NNW
COSMO-SKYMED 1 2.5 18:11:56 10° NNE 18:16:18 82° ESE 18:20:37 10° S
CZ-4 R/B 2.4 18:14:05 10° S 18:17:50 46° W 18:21:34 10° NNW
COSMOS 2455 4.0 18:15:29 10° SW 18:21:08 42° NW 18:26:50 10° NNE
Cosmos 2221 Rocket 3.5 18:20:18 10° S 18:24:38 60° E 18:28:14 15° NNE
Cosmos 1072 Rocket 4.4 18:18:41 10° S 18:24:48 69° E 18:31:04 10° NNE
Cosmos 1763 Rocket 4.0 18:25:23 10° NNW 18:30:31 60° WSW 18:35:32 10° S
Cosmos 2034 Rocket 4.1 18:25:05 10° SSE 18:31:12 51° E 18:37:19 10° NNE
SL-27 R/B 2.1 18:28:43 10° NNW 18:32:03 75° ENE 18:32:49 49° SE
ALOS 2.1 18:28:28 10° SSE 18:33:06 71° ENE 18:37:46 10° N
Nadezhda 4 Rocket 4.4 18:28:00 10° NNE 18:33:32 34° ENE 18:39:00 10° SE
Meteor 1-11 Rocket 4.2 18:28:21 10° N 18:33:46 37° ENE 18:35:57 28° ESE
FENGYUN 3A 3.5 18:29:57 10° SSE 18:35:20 72° ENE 18:40:44 10° N
BREEZE-M DEB (TANK) 4.5 18:33:45 10° NNW 18:34:10 13° NNW 18:34:10 13° NNW
Cosmos 1703 Rocket 4.2 18:33:50 10° SSW 18:38:13 57° W 18:42:38 10° N
Cosmos 2297 3.6 18:33:38 10° SSW 18:39:19 75° ESE 18:42:46 25° NNE
Cosmos 1633 2.7 18:36:58 10° N 18:40:38 73° W 18:44:17 10° S
Cosmos 1833 Rocket 2.6 18:38:26 10° NNW 18:44:00 60° ENE 18:46:55 28° SE
Cosmos 1503 Rocket 3.9 18:38:52 10° SSW 18:44:10 87° WNW 18:47:37 22° NNE
Cosmos 2278 Rocket 3.5 18:41:06 10° SW 18:46:22 39° WNW 18:51:40 10° N
Okean 2 Rocket 3.0 18:44:06 10° N 18:48:37 71° E 18:53:07 10° SSE
Cosmos 1441 Rocket 4.4 18:46:54 10° S 18:49:08 31° SSE 18:49:08 31° SSE
Cosmos 1606 4.1 18:48:35 10° SSW 18:52:07 38° W 18:55:26 11° N
Cosmos 968 Rocket 4.2 18:52:38 10° S 18:55:59 36° SSE 18:55:59 36° SSE
Cosmos 1464 Rocket 4.2 18:54:38 10° SSW 19:00:42 67° W 19:06:50 10° N
Cosmos 836 Rocket 4.4 18:55:47 10° NNW 19:01:04 89° WSW 19:04:54 19° SSE
Cosmos 540 Rocket 3.4 18:57:23 10° NNW 19:02:35 83° WSW 19:06:26 18° SSE
Meteor 2-20 4.2 18:57:56 10° N 19:04:03 77° E 19:10:06 10° S
MOS 1-B Rocket 4.4 19:07:24 10° SSE 19:14:21 71° ENE 19:22:33 10° N
USA 234 3.9 19:11:31 29° NNE 19:14:31 48° NW 19:20:43 10° WSW
Cosmos 405 Rocket 4.4 19:18:03 10° SSW 19:20:33 30° WSW 19:20:33 30° WSW
Cosmos 2082 Rocket 2.6 19:22:25 10° NNW 19:27:59 59° WSW 19:29:59 38° SSW
FengYun 1-2 T 4.4 19:24:26 10° S 19:29:54 68° WSW 19:35:27 10° NNW
CZ-4C R/B 3.2 19:27:07 10° NNW 19:32:45 50° NNE 19:32:45 50° NNE
